TimeCDT,TemperatureF,Dew PointF,Humidity,Sea Level PressureIn,VisibilityMPH,Wind Direction,Wind SpeedMPH,Gust SpeedMPH,PrecipitationIn,Events,Conditions,WindDirDegrees,DateUTC
12:15 AM,33.8,24.8,70,30.23,10.0,North,13.8,21.9,N/A,,Clear,350,2014-03-22 05:15:00
12:35 AM,33.8,24.8,70,30.24,10.0,North,12.7,20.7,N/A,,Clear,360,2014-03-22 05:35:00
12:55 AM,32.0,24.8,75,30.24,10.0,North,15.0,-,N/A,,Clear,360,2014-03-22 05:55:00
1:15 AM,32.0,23.0,69,30.24,10.0,North,16.1,-,N/A,,Clear,350,2014-03-22 06:15:00
1:35 AM,32.0,23.0,69,30.26,10.0,North,15.0,20.7,N/A,,Clear,350,2014-03-22 06:35:00
1:55 AM,30.2,23.0,75,30.26,10.0,North,13.8,20.7,N/A,,Clear,350,2014-03-22 06:55:00
2:15 AM,30.2,23.0,75,30.27,10.0,North,11.5,17.3,N/A,,Clear,350,2014-03-22 07:15:00
2:35 AM,30.2,23.0,75,30.29,10.0,NNW,8.1,-,N/A,,Mostly Cloudy,340,2014-03-22 07:35:00
2:55 AM,30.2,23.0,75,30.28,10.0,NNW,10.4,-,N/A,,Overcast,340,2014-03-22 07:55:00
3:15 AM,28.4,21.2,74,30.29,10.0,North,9.2,-,N/A,,Mostly Cloudy,360,2014-03-22 08:15:00
3:35 AM,28.4,21.2,74,30.30,10.0,North,9.2,15.0,N/A,,Partly Cloudy,350,2014-03-22 08:35:00
3:55 AM,26.6,21.2,80,30.30,10.0,NNW,8.1,-,N/A,,Mostly Cloudy,340,2014-03-22 08:55:00
4:15 AM,28.4,21.2,74,30.30,10.0,North,8.1,15.0,N/A,,Overcast,360,2014-03-22 09:15:00
4:35 AM,26.6,21.2,80,30.30,10.0,NNW,9.2,-,N/A,,Mostly Cloudy,340,2014-03-22 09:35:00
4:55 AM,26.6,21.2,80,30.31,10.0,North,6.9,-,N/A,,Partly Cloudy,350,2014-03-22 09:55:00
5:15 AM,24.8,19.4,80,30.31,10.0,North,8.1,-,N/A,,Clear,10,2014-03-22 10:15:00
5:35 AM,24.8,19.4,80,30.32,10.0,North,8.1,-,N/A,,Clear,350,2014-03-22 10:35:00
5:55 AM,24.8,19.4,80,30.33,10.0,North,8.1,-,N/A,,Clear,350,2014-03-22 10:55:00
6:15 AM,23.0,19.4,86,30.33,10.0,North,6.9,12.7,N/A,,Clear,350,2014-03-22 11:15:00
6:35 AM,23.0,17.6,80,30.34,10.0,North,8.1,-,N/A,,Clear,360,2014-03-22 11:35:00
6:55 AM,23.0,17.6,80,30.34,10.0,NNW,9.2,15.0,N/A,,Clear,340,2014-03-22 11:55:00
7:15 AM,23.0,17.6,80,30.35,10.0,North,8.1,-,N/A,,Clear,350,2014-03-22 12:15:00
7:35 AM,23.0,15.8,74,30.36,10.0,North,9.2,17.3,N/A,,Clear,360,2014-03-22 12:35:00
7:55 AM,23.0,15.8,74,30.37,10.0,North,11.5,-,N/A,,Clear,360,2014-03-22 12:55:00
8:15 AM,23.0,14.0,68,30.37,10.0,North,15.0,24.2,N/A,,Clear,360,2014-03-22 13:15:00
8:35 AM,23.0,14.0,68,30.37,10.0,North,13.8,21.9,N/A,,Clear,10,2014-03-22 13:35:00
8:55 AM,24.8,14.0,64,30.38,10.0,North,16.1,24.2,N/A,,Partly Cloudy,360,2014-03-22 13:55:00
9:15 AM,24.8,14.0,64,30.38,10.0,North,17.3,24.2,N/A,,Clear,10,2014-03-22 14:15:00
9:35 AM,24.8,12.2,59,30.39,10.0,North,13.8,20.7,N/A,,Clear,360,2014-03-22 14:35:00
9:55 AM,24.8,12.2,59,30.40,10.0,North,13.8,21.9,N/A,,Clear,360,2014-03-22 14:55:00
10:15 AM,26.6,12.2,55,30.42,10.0,North,13.8,21.9,N/A,,Clear,350,2014-03-22 15:15:00
10:35 AM,26.6,10.4,51,30.43,10.0,North,12.7,20.7,N/A,,Clear,360,2014-03-22 15:35:00
10:55 AM,28.4,12.2,51,30.43,10.0,North,18.4,-,N/A,,Clear,350,2014-03-22 15:55:00
11:15 AM,28.4,12.2,51,30.42,10.0,North,12.7,20.7,N/A,,Clear,10,2014-03-22 16:15:00
11:35 AM,28.4,10.4,47,30.42,10.0,North,17.3,-,N/A,,Clear,10,2014-03-22 16:35:00
11:55 AM,30.2,10.4,44,30.42,10.0,NNE,11.5,19.6,N/A,,Clear,20,2014-03-22 16:55:00
12:15 PM,32.0,8.6,38,30.42,10.0,North,12.7,21.9,N/A,,Clear,360,2014-03-22 17:15:00
12:50 PM,33.8,6.8,32,30.41,10.0,NNW,17.3,-,N/A,,Clear,340,2014-03-22 17:50:00
1:15 PM,33.8,6.8,32,30.40,10.0,NNE,16.1,-,N/A,,Clear,20,2014-03-22 18:15:00
1:35 PM,33.8,5.0,30,30.40,10.0,North,18.4,24.2,N/A,,Scattered Clouds,10,2014-03-22 18:35:00
1:55 PM,35.6,5.0,28,30.39,10.0,NNE,19.6,-,N/A,,Overcast,20,2014-03-22 18:55:00
2:15 PM,33.8,5.0,30,30.39,10.0,North,10.4,24.2,N/A,,Overcast,10,2014-03-22 19:15:00
2:35 PM,35.6,5.0,28,30.38,10.0,NNE,15.0,-,N/A,,Scattered Clouds,20,2014-03-22 19:35:00
2:55 PM,35.6,3.2,26,30.38,10.0,NNE,17.3,-,N/A,,Clear,20,2014-03-22 19:55:00
3:15 PM,35.6,5.0,28,30.38,10.0,North,17.3,25.3,N/A,,Clear,360,2014-03-22 20:15:00
3:35 PM,37.4,5.0,26,30.38,10.0,North,16.1,24.2,N/A,,Scattered Clouds,360,2014-03-22 20:35:00
3:55 PM,35.6,5.0,28,30.38,10.0,North,18.4,-,N/A,,Mostly Cloudy,360,2014-03-22 20:55:00
4:15 PM,35.6,5.0,28,30.38,10.0,North,13.8,21.9,N/A,,Partly Cloudy,360,2014-03-22 21:15:00
4:35 PM,35.6,3.2,26,30.39,10.0,North,12.7,21.9,N/A,,Clear,10,2014-03-22 21:35:00
4:55 PM,35.6,5.0,28,30.39,10.0,North,17.3,24.2,N/A,,Clear,10,2014-03-22 21:55:00
5:15 PM,33.8,5.0,30,30.39,10.0,North,13.8,19.6,N/A,,Scattered Clouds,10,2014-03-22 22:15:00
5:35 PM,33.8,5.0,30,30.40,10.0,North,16.1,-,N/A,,Overcast,350,2014-03-22 22:35:00
5:55 PM,33.8,5.0,30,30.40,10.0,North,12.7,19.6,N/A,,Scattered Clouds,10,2014-03-22 22:55:00
6:15 PM,33.8,5.0,30,30.41,10.0,North,13.8,-,N/A,,Partly Cloudy,10,2014-03-22 23:15:00
6:35 PM,32.0,5.0,32,30.41,10.0,North,16.1,-,N/A,,Mostly Cloudy,10,2014-03-22 23:35:00
6:55 PM,32.0,5.0,32,30.41,10.0,North,15.0,-,N/A,,Partly Cloudy,10,2014-03-22 23:55:00
7:15 PM,32.0,5.0,32,30.42,10.0,North,15.0,-,N/A,,Mostly Cloudy,360,2014-03-23 00:15:00
7:35 PM,30.2,5.0,34,30.42,10.0,North,16.1,-,N/A,,Overcast,10,2014-03-23 00:35:00
7:55 PM,30.2,6.8,37,30.42,10.0,North,12.7,20.7,N/A,,Overcast,10,2014-03-23 00:55:00
8:15 PM,30.2,5.0,34,30.43,10.0,North,16.1,-,N/A,,Overcast,10,2014-03-23 01:15:00
8:35 PM,30.2,6.8,37,30.44,10.0,North,15.0,-,N/A,,Mostly Cloudy,10,2014-03-23 01:35:00
8:55 PM,30.2,6.8,37,30.45,10.0,North,10.4,18.4,N/A,,Overcast,10,2014-03-23 01:55:00
9:15 PM,28.4,8.6,43,30.46,10.0,NNE,12.7,-,N/A,,Overcast,20,2014-03-23 02:15:00
9:35 PM,28.4,8.6,43,30.47,10.0,NNE,10.4,-,N/A,,Overcast,20,2014-03-23 02:35:00
9:55 PM,28.4,8.6,43,30.48,10.0,NNE,13.8,-,N/A,,Overcast,20,2014-03-23 02:55:00
10:15 PM,28.4,6.8,40,30.49,10.0,North,13.8,19.6,N/A,,Overcast,10,2014-03-23 03:15:00
10:35 PM,28.4,8.6,43,30.49,10.0,NNE,13.8,-,N/A,,Overcast,20,2014-03-23 03:35:00
10:55 PM,28.4,8.6,43,30.50,10.0,NNE,11.5,-,N/A,,Overcast,20,2014-03-23 03:55:00
11:15 PM,28.4,8.6,43,30.50,10.0,North,10.4,-,N/A,,Overcast,10,2014-03-23 04:15:00
11:35 PM,26.6,8.6,47,30.51,10.0,NNE,10.4,-,N/A,,Overcast,20,2014-03-23 04:35:00
11:55 PM,26.6,8.6,47,30.52,10.0,North,9.2,-,N/A,,Overcast,10,2014-03-23 04:55:00